Location: Dattensoll
(49.9928°N, 9.8954°E)
Time: 20:36:33
(UTC+00:00)

NOSS 3-1 (A) - Pass Details

Date: 19 May 2025
Orbit: 639 x 1568 km, 63.4° (Epoch: 18 June)

Event Time Altitude Azimuth Distance (km) Brightness Sun altitude
Exits shadow 20:50:06 16° 171° (S) 1,798 4.4 -12.9°
Maximum altitude 20:53:17 32° 116° (ESE) 1,282 3.7 -13.2°
Drops below altitude 10° 20:58:12 10° 55° (NE) 2,498 5.7 -13.6°
Sets 21:01:10 0° 47° (NE) 3,592 6.6 -13.9°
